Terminal Aerodrome Forecast
Issued by NWS

Current Version | Previous Version | Graphics & Text | Print | Product List | Glossary On
Versions: 1 2 3 4 5 6 7 8 9 10 11 12 13 14 15 16
000
FTUS41 KPBZ 222300
TAFHLG
TAF
KHLG 222320Z 2300/2324 33015KT P6SM FEW027 FEW045
     FM230800 33015KT P6SM BKN025
     FM231500 34015G24KT P6SM SCT040
     FM231800 33015G24KT P6SM SKC=

USA.gov is the U.S. government's official web portal to all federal, state and local government web resources and services.